Content
SEND FEEDBACK

Daily
Averages
Monthly
Summary
United States of America

ROSE CITY, TEXAS


Home > North America > United States > Texas
Elevation: 6 meters     Latitude: 30 05N     Longitude: 094 06W

WEATHER
 
SELECT A DAY
Number of Records: 69,600;   Date Range: 3/9/11 - 8/18/14
 
SHARE

PRINT THIS DATA

[ ← Previous Day ]
WEATHER ALMANAC - 23 JANUARY, 2013
[ Next Day → ]
[ °F ]   °C
Weather ElementAverageHighLow
Temperature14.4 °C23 °C (2:15 pm)5 °C (6:35 am)
Dewpoint8.5 °C13 °C (9:35 am)3 °C (6:35 am)
Humidity71.8 %94 % (10:15 pm)38 % (2:15 pm)
Barometer1026.1 hPa1028.4 hPa (9:55 am)1024.7 hPa (8:35 pm)
Wind Speed7.6 km/h18.5 km/h (11:15 am)
Wind Gust29.6 km/h (1:35 pm)
Weather ElementAverage
Visibility11.1 km
Wind DirectionESE (109.2 °)

Weather ElementTotal
Precipitation---
Heating Degree Days4.3 (Base 18.3)
Growing Degree Days4 (Base 10)
Averaged from 62 records on 23 January, 2013
WEATHER CONDITIONS BREAKOUT
WIND DIRECTION BREAKOUT
WEATHER BY HOUR - 23 JANUARY, 2013
[ °F ]   °C
Local TimeTemperatureDewpointHumidityBarometerVisibilityWind DirectionWind SpeedGust SpeedPrecipitationEventsConditions
12:55 AM8 °C7 °C93 %1026.4 hPa0.3 kmCalmFogFog
1:15 AM7 °C6 °C93 %1026.4 hPa0.3 kmCalmFogFog
1:55 AM8 °C7 °C93 %1026.4 hPa0.3 kmCalmFogFog
2:15 AM7 °C6 °C93 %1026.4 hPa0.3 kmCalmFogFog
2:35 AM7 °C6 °C93 %1026.4 hPa0.3 kmCalmFogFog
2:55 AM6 °C5 °C93 %1026.8 hPa0.3 kmCalmFogFog
3:15 AM6 °C5 °C93 %1026.4 hPa0.3 kmCalmFogFog
3:35 AM6 °C5 °C93 %1026.4 hPa0.3 kmCalmFogFog
3:55 AM6 °C5 °C93 %1026.4 hPa0.8 kmCalmFogFog
4:15 AM7 °C5 °C87 %1026.4 hPa0.3 kmCalmFogFog
4:35 AM6 °C5 °C93 %1026.4 hPa0.3 kmCalmFogFog
4:55 AM6 °C5 °C93 %1026.4 hPa0.3 kmCalmFogFog
5:15 AM6 °C5 °C93 %1026.4 hPa0.3 kmCalmFogFog
5:35 AM6 °C4 °C87 %1026.8 hPa0.3 kmCalmFogFog
5:55 AM6 °C4 °C87 %1026.8 hPa0.3 kmCalmFogFog
6:15 AM6 °C4 °C87 %1026.8 hPa0.3 kmCalmFogFog
6:35 AM5 °C3 °C87 %1026.8 hPa4.8 kmCalmOvercast
6:55 AM5 °C4 °C93 %1026.8 hPa4.8 kmCalmOvercast
7:15 AM5 °C4 °C93 %1027.1 hPa0.3 kmCalmFogFog
7:55 AM6 °C5 °C93 %1027.4 hPa4.8 kmCalmScattered Clouds
8:55 AM12 °C10 °C88 %1028.1 hPa8 kmCalmClear
9:35 AM16 °C13 °C82 %1028.1 hPa16.1 kmSSE (150°)7.4 km/hClear
9:55 AM17 °C12 °C72 %1028.4 hPa16.1 kmSE (140°)7.4 km/hClear
10:15 AM18 °C12 °C68 %1028.4 hPa16.1 kmSE (130°)13 km/hClear
10:35 AM20 °C11 °C56 %1028.4 hPa16.1 kmSSE (160°)13 km/hClear
10:55 AM21 °C10 °C49 %1028.4 hPa16.1 kmSSE (150°)11.1 km/hClear
11:15 AM21 °C10 °C49 %1028.1 hPa16.1 kmSSE (160°)18.5 km/hClear
11:35 AM21 °C10 °C49 %1027.8 hPa16.1 kmSSE (160°)14.8 km/hClear
11:55 AM21 °C9 °C46 %1027.4 hPa16.1 kmSSE (160°)13 km/hScattered Clouds
12:15 PM22 °C8 °C41 %1027.1 hPa16.1 kmSouth (190°)18.5 km/hScattered Clouds
12:35 PM22 °C8 °C41 %1026.8 hPa16.1 kmSSE (160°)13 km/hScattered Clouds
12:55 PM22 °C8 °C41 %1026.4 hPa16.1 kmSouth (170°)13 km/hMostly Cloudy
1:15 PM22 °C8 °C41 %1026.1 hPa16.1 kmSouth (190°)14.8 km/hMostly Cloudy
1:35 PM22 °C8 °C41 %1026.1 hPa16.1 kmSouth (190°)13 km/h29.6 km/hMostly Cloudy
1:55 PM22 °C8 °C41 %1025.7 hPa16.1 kmSSW (200°)18.5 km/h27.8 km/hMostly Cloudy
2:15 PM23 °C8 °C38 %1025.7 hPa16.1 kmSSW (200°)18.5 km/hMostly Cloudy
2:35 PM23 °C8 °C38 %1025.4 hPa16.1 kmSSW (200°)11.1 km/hMostly Cloudy
2:55 PM21 °C8 °C43 %1025.4 hPa16.1 kmSouth (180°)14.8 km/hMostly Cloudy
3:15 PM21 °C8 °C43 %1025.1 hPa16.1 kmSouth (170°)16.7 km/hMostly Cloudy
3:35 PM22 °C9 °C43 %1025.4 hPa16.1 kmSouth (170°)18.5 km/hMostly Cloudy
3:55 PM22 °C8 °C41 %1025.4 hPa16.1 kmSouth (180°)13 km/h25.9 km/hMostly Cloudy
4:15 PM21 °C9 °C46 %1025.4 hPa16.1 kmSouth (170°)16.7 km/hScattered Clouds
4:35 PM21 °C9 °C46 %1025.4 hPa16.1 kmSouth (170°)13 km/hClear
4:55 PM20 °C10 °C52 %1025.4 hPa16.1 kmSouth (170°)13 km/hClear
5:15 PM20 °C10 °C52 %1025.4 hPa16.1 kmSouth (170°)13 km/hClear
5:35 PM18 °C10 °C59 %1025.1 hPa16.1 kmSouth (170°)11.1 km/hClear
5:55 PM17 °C11 °C68 %1025.1 hPa16.1 kmSSE (160°)9.3 km/hClear
6:15 PM17 °C11 °C68 %1025.1 hPa16.1 kmSSE (160°)9.3 km/hClear
6:35 PM17 °C11 °C68 %1025.1 hPa16.1 kmSSE (150°)13 km/hScattered Clouds
6:55 PM16 °C11 °C72 %1025.1 hPa16.1 kmSE (140°)7.4 km/hScattered Clouds
7:15 PM15 °C11 °C77 %1025.1 hPa16.1 kmSE (140°)7.4 km/hClear
7:35 PM15 °C11 °C77 %1025.1 hPa16.1 kmSE (140°)5.6 km/hClear
7:55 PM15 °C12 °C82 %1025.1 hPa16.1 kmSSE (150°)7.4 km/hClear
8:15 PM14 °C12 °C88 %1025.1 hPa16.1 kmSSE (160°)7.4 km/hClear
8:35 PM14 °C12 °C88 %1024.7 hPa16.1 kmSSE (160°)5.6 km/hClear
8:55 PM14 °C12 °C88 %1024.7 hPa16.1 kmSouth (170°)7.4 km/hClear
9:15 PM14 °C12 °C88 %1024.7 hPa16.1 kmSSE (160°)5.6 km/hClear
9:35 PM14 °C12 °C88 %1024.7 hPa16.1 kmSouth (170°)7.4 km/hClear
9:55 PM14 °C12 °C88 %1024.7 hPa16.1 kmSouth (170°)5.6 km/hClear
10:15 PM13 °C12 °C94 %1025.1 hPa16.1 kmSSE (160°)5.6 km/hClear
10:35 PM13 °C12 °C94 %1025.1 hPa16.1 kmSSE (160°)7.4 km/hClear
11:35 PM14 °C12 °C88 %1025.1 hPa16.1 kmSSE (160°)5.6 km/hScattered Clouds
Hourly data recorded from KBMT, located 0 kilometers away from Rose City, Texas







STORIES FROM OUR PARTNERS